Flag for U.S.A. Weather past 2 weeks in Citrus Heights, California, U.S.A.

Now
41 °F

Passing clouds.


Feels Like: 41 °F
Forecast: 35 / 52 °F
Wind: No wind

Location: Mather Field

Current Time: Dec 27, 2014 at 9:21:58 PM

Latest Report: Dec 27, 2014 at 8:46 PM


Visibility: 10 mi

Pressure: 30.39 "Hg

Humidity: 100%

Dew point: 41 °F

Location of Citrus HeightsLocation

Historic Weather in Citrus Heights — Graph

°F

Citrus Heights temperature yesterday

Maximum temperature yesterday: 55 °F (at 12:55 PM)
Minimum temperature yesterday: 34 °F (at 11:25 PM)
Average temperature yesterday: 43 °F

Past Weeks' High & Low Weather Summary

 TemperatureHumidityPressure
High64 °F (Dec 23, 1:45 PM)100% (Dec 12, 6:48 PM)30.41 "Hg (Dec 12, 6:48 PM)
Low32 °F (Dec 27, 6:45 AM)31% (Dec 25, 1:45 PM)29.71 "Hg (Dec 16, 1:45 PM)
Average51 °F92%30.13 "Hg
* Reported Dec 12 6:48 PM — Dec 27 6:46 PM, Citrus Heights, Weather by CustomWeather, © 2014

Note: Actual official high and low records may vary slightly from our data, if they occured in-between our weather recording intervals... More about our weather records

Advertising

Citrus Heights weather history for previous 24 hours

 ConditionsComfort  
Time TempWeatherWind HumidityBarometerVisibility
6:46 PM
Dec 27
46 °FPassing clouds.No wind82%30.37 "Hg10 mi
5:46 PM48 °FPassing clouds.No wind66%30.37 "Hg10 mi
4:46 PM50 °FPartly sunny.No wind62%30.36 "Hg10 mi
2:46 PM54 °FScattered clouds.7 mph54%30.35 "Hg10 mi
1:46 PM54 °FPassing clouds.3 mph58%30.36 "Hg10 mi
12:43 PM52 °FPassing clouds.3 mph62%30.37 "Hg10 mi
11:50 AM52 °FPassing clouds.5 mph58%30.39 "Hg10 mi
10:55 AM48 °FPassing clouds.No wind71%30.41 "Hg10 mi
9:55 AM46 °FPassing clouds.5 mph71%30.40 "Hg10 mi
8:45 AM37 °FScattered clouds.No wind100%30.35 "Hg10 mi
7:45 AM32 °FSunny.No wind100%30.34 "Hg10 mi
6:45 AM32 °FClear.No wind100%30.32 "Hg10 mi
5:45 AM34 °FClear.No wind100%30.31 "Hg10 mi
4:45 AM36 °FClear.No wind100%30.30 "Hg10 mi
3:45 AM34 °FClear.5 mph100%30.30 "Hg10 mi
2:45 AM34 °FClear.No wind100%30.29 "Hg10 mi
11:25 PM
Dec 26
34 °FClear.No wind100%30.27 "Hg10 mi
10:49 PM36 °FClear.No wind100%30.26 "Hg10 mi
9:49 PM37 °FClear.5 mph100%30.24 "Hg10 mi
Weather by CustomWeather, © 2014

See weather overviewHow to use our weather pages